Temp
54 54 54 55 55 55 56 58 60 61 61 62 63 64 64 64 65 65 65 66 66 66
53 53 52 52 52 54 55 59 59 59 59 60 61 61 61 61 62 63 64 65 66 66
52 52 51 50 51 51 53 55 56 56 57 58 59 60 59 60 62 62 63 64 65 65
51 51 52 50 49 50 50 52 53 54 55 56 57 58 58 59 60 61 61 63 64 65
49 50 50 50 51 50 49 51 51 52 53 55 55 56 57 58 60 60 60 61 62 62
48 48 48 49 50 50 50 50 51 52 51 52 53 53 56 58 59 59 60 61 61 61
46 47 47 48 48 48 50 50 50 51 51 51 52 53 55 57 58 59 61 61 61 62
46 47 48 47 48 48 49 50 52 50 50 50 51 55 55 56 57 58 59 60 62 62
47 48 48 48 47 47 47 48 49 48 48 48 52 50 50 51 51 56 58 58 60 61
48 47 48 48 47 47 46 47 47 47 47 47 48 47 46 48 50 53 56 57 57 58
47 46 47 46 45 45 46 46 47 47 47 47 48 47 45 47 50 52 56 57 57 57
46 45 45 44 45 46 47 47 47 48 47 46 46 46 44 45 48 50 54 57 58 58
45 44 44 44 45 46 47 46 48 47 48 47 46 45 44 45 48 49 52 56 57 50
44 43 43 44 46 45 45 46 45 45 46 46 46 47 44 44 48 50 53 55 57 56
MSLP
1011.89 1012.05 1012.06 1011.90 1011.65 1011.42 1011.11 1010.79 1010.60 1010.22 1009.75 1009.38 1009.02 1008.62 1008.23 1007.74 1007.42 1007.15 1006.83 1006.48 1006.24 1006.17
1011.80 1011.75 1011.66 1011.40 1011.19 1010.90 1010.61 1010.37 1009.90 1009.62 1009.31 1008.86 1008.55 1008.20 1007.82 1007.33 1006.74 1006.24 1005.90 1005.51 1005.29 1004.97
1011.41 1011.31 1011.18 1011.01 1010.77 1010.51 1010.27 1009.94 1009.57 1009.24 1008.82 1008.26 1007.75 1007.38 1007.05 1006.65 1006.08 1005.57 1005.03 1004.63 1004.33 1004.29
1011.34 1011.23 1011.04 1010.81 1010.51 1010.25 1009.87 1009.54 1009.17 1008.84 1008.36 1007.70 1007.15 1006.73 1006.18 1005.72 1005.30 1004.75 1004.22 1003.85 1003.63 1003.35
1011.22 1010.85 1010.41 1010.03 1009.61 1009.24 1009.00 1008.82 1008.66 1008.33 1007.72 1007.16 1006.66 1006.06 1005.33 1004.65 1004.13 1003.87 1003.33 1003.07 1002.88 1002.61
1010.53 1010.12 1009.57 1009.13 1008.87 1008.70 1008.50 1008.20 1007.62 1007.14 1006.85 1006.45 1005.99 1005.47 1004.75 1003.99 1003.34 1002.99 1002.67 1002.25 1001.84 1001.57
1010.26 1009.78 1009.35 1008.89 1008.49 1008.10 1007.76 1007.22 1006.79 1006.51 1006.23 1005.87 1005.37 1004.73 1003.92 1003.21 1002.63 1002.15 1001.68 1001.27 1000.93 1000.68
1009.98 1009.51 1008.93 1008.40 1007.96 1007.76 1007.27 1006.66 1006.08 1005.79 1005.48 1005.15 1004.74 1003.85 1003.15 1002.62 1002.02 1001.18 1000.78 1000.37 999.93 999.68
1009.60 1009.05 1008.54 1007.96 1007.59 1007.22 1006.61 1005.98 1005.55 1005.18 1004.77 1004.26 1003.74 1003.27 1002.98 1002.70 1002.04 1000.98 999.98 999.60 999.19 998.91
1009.13 1008.55 1008.00 1007.56 1006.99 1006.30 1005.63 1005.20 1004.74 1004.30 1003.87 1003.35 1002.85 1002.45 1002.14 1001.75 1001.29 1000.54 999.54 998.85 998.63 998.31
1008.71 1008.13 1007.59 1007.03 1006.31 1005.63 1005.07 1004.46 1003.74 1003.17 1002.79 1002.37 1002.00 1001.50 1001.32 1001.08 1000.59 999.87 998.84 998.18 997.93 997.72
1008.29 1007.77 1007.06 1006.10 1005.36 1004.81 1004.20 1003.48 1002.76 1002.24 1001.71 1001.29 1000.94 1000.72 1000.57 1000.42 999.99 999.25 998.26 997.68 997.32 996.84
1007.93 1007.18 1006.26 1005.61 1004.96 1004.21 1003.54 1002.63 1001.83 1001.01 1000.62 1000.16 999.97 999.97 999.74 999.59 999.31 998.78 997.94 997.33 996.77 996.63
1007.20 1006.51 1005.80 1005.04 1004.25 1003.39 1002.57 1001.81 1001.09 1000.16 999.65 999.22 999.20 998.99 998.74 998.53 998.81 998.45 997.44 996.76 996.09 995.50
Wind_Speed
3 2 2 2 3 3 3 4 6 8 8 10 11 10 10 7 8 10 10 13 13 11
3 3 5 6 5 4 6 6 7 7 9 9 10 11 11 8 10 9 10 10 11 13
6 5 6 6 8 7 9 9 9 11 10 10 10 10 10 10 11 11 9 8 10 11
7 6 6 6 7 7 8 8 9 11 12 13 12 11 11 11 12 13 10 9 11 13
6 8 9 8 8 6 7 7 9 11 11 12 13 13 14 13 11 13 12 11 11 12
9 10 11 11 10 10 11 11 11 10 11 13 14 15 16 15 13 13 14 13 12 12
10 11 11 10 12 11 12 12 12 11 12 15 15 16 16 16 15 13 15 14 13 14
11 12 12 12 11 13 12 12 11 12 13 13 14 12 13 13 14 13 15 14 14 15
12 12 12 14 12 13 13 13 13 12 14 14 11 17 21 20 16 17 14 13 12 11
12 13 13 14 13 13 13 14 14 14 13 14 13 17 20 20 13 15 15 11 10 10
12 14 14 13 14 14 13 15 15 14 14 14 13 17 15 17 14 15 14 9 9 11
13 15 15 14 14 15 15 15 15 15 15 15 14 17 15 13 11 11 13 9 10 12
14 15 14 15 15 15 15 16 14 15 16 16 13 14 16 13 6 9 8 8 9 12
14 14 14 15 14 14 14 14 15 16 13 11 11 13 17 14 6 9 7 7 5 2
Wind_Direction
38 354 297 270 279 276 268 278 283 283 279 277 275 272 266 253 244 247 251 253 248 245
309 294 285 281 260 265 274 280 281 282 278 280 280 276 272 263 253 245 248 251 256 258
304 281 272 272 275 270 277 276 276 278 276 275 275 275 274 268 258 249 247 248 252 258
291 281 276 256 250 252 261 263 275 282 281 279 274 271 270 265 267 260 254 249 251 256
281 293 296 284 288 275 265 267 269 272 280 286 285 279 272 268 270 271 262 253 251 256
307 307 304 302 301 297 288 278 280 283 287 290 285 282 276 271 267 269 265 255 251 246
302 301 291 288 294 294 290 288 282 279 288 288 283 276 270 269 269 268 266 261 253 250
301 294 293 289 292 289 284 278 272 277 283 281 280 275 283 278 272 264 265 261 259 250
290 288 287 294 285 276 277 278 277 272 274 275 275 281 283 284 279 281 268 264 259 255
296 292 292 290 281 275 278 279 275 268 269 273 274 276 276 277 276 273 264 248 251 260
294 292 296 290 286 286 283 280 276 272 265 270 278 275 280 282 287 284 263 251 257 253
300 297 295 287 289 290 289 285 280 275 267 260 262 275 272 272 283 278 278 261 248 245
298 292 290 293 292 287 284 280 278 278 272 262 263 271 274 266 264 268 272 250 249 237
294 296 291 290 285 285 284 293 290 286 282 258 263 273 270 256 267 263 266 248 237 96